[[{"header":{"parameterUnit":"m.s-1","parameterCategory":1,"la1":30.2991,"la2":30.254,"lo1":-89.0895,"lo2":-89.0444,"dy":0.0017,"dx":0.0017,"nx":28,"ny":28,"refTime":"2023-08-21T09:00:00:Z","depth":0,"parameterNumber":2,"parameterNumberName":"U-component_of_WINDS"},"data":[0,0,0,0,0,0,0,0,0,0,0,0,0,0,0,0,0,0,0,0,0,0,0,0,0,0,0,0,0,0,0,0,0,0,0,0,0,0,0,0,0,0,0,0,0,0,0,0,0,0,0,0,0,0,0,0,0,0,-3.0503,-3.0504,0,-3.0528,-3.0528,-3.0529,-3.045,-3.0447,-3.0445,-3.0443,-3.0467,-3.047,-3.0473,0,0,0,0,0,0,0,0,0,0,0,0,0,-3.0387,-3.039,-3.0503,-3.0504,-3.0504,-3.0528,-3.0528,-3.0529,-3.045,-3.0447,-3.0444,-3.0442,-3.0466,-3.047,-3.0473,0,0,0,0,0,0,0,0,0,0,0,0,0,-3.0427,-3.039,-3.0503,-3.0468,-3.0465,-3.0528,-3.0528,-3.0529,-3.0451,-3.0447,-3.0444,-3.044,-3.0465,-3.0469,-3.0474,-3.0572,0,0,-3.0487,-3.0489,0,0,0,0,0,0,0,0,-3.0425,-3.0432,-3.0473,-3.047,-3.0467,-3.0482,-3.0496,-3.0543,-3.0452,-3.0456,-3.0443,-3.0439,-3.0475,-3.0478,-3.0491,-3.0573,-3.0574,-3.0487,-3.049,-3.0492,-3.0493,0,0,0,0,0,0,0,-3.0422,-3.043,-3.0513,-3.0473,-3.047,-3.045,-3.0452,-3.0505,-3.0485,-3.0456,-3.045,-3.0454,-3.0473,-3.0487,-3.0491,-3.0574,-3.0487,-3.0491,-3.0493,-3.0495,-3.0737,-3.0741,0,0,0,0,0,0,-3.0424,-3.0428,-3.0512,-3.0514,-3.0437,-3.0455,-3.0457,-3.0481,-3.0485,-3.0482,-3.0457,-3.045,-3.0481,-3.0486,-3.0491,-3.0605,-3.0492,-3.0496,-3.0498,-3.0733,-3.0738,-3.0742,0,0,0,0,0,0,-3.0422,-3.0433,-3.0511,-3.047,-3.0478,-3.0461,-3.0488,-3.0483,-3.0497,-3.0486,-3.0482,-3.0475,-3.0479,-3.0485,-3.0552,-3.0605,-3.0497,-3.0501,-3.0729,-3.0735,-3.074,-3.0836,0,0,0,0,0,0,-3.0419,-3.0432,-3.047,-3.0471,-3.0481,-3.0573,-3.0492,-3.0486,-3.0505,-3.0496,-3.0501,-3.0499,-3.0476,-3.0546,-3.0556,-3.0609,-3.0505,-3.0724,-3.0731,-3.0738,-3.0828,-3.0844,-3.0858,0,0,0,0,0,-3.0415,-3.0496,-3.0472,-3.0483,-3.0527,-3.0576,-3.0581,-3.0554,-3.051,-3.0547,-3.0539,-3.0499,-3.0598,-3.0554,-3.0565,-3.062,-3.072,-3.0729,-3.0738,-3.0821,-3.0841,-3.0858,0,0,0,0,0,0,-3.0501,-3.0495,-3.0469,-3.0552,-3.0565,-3.0562,-3.0608,-3.0576,-3.0601,-3.0592,-3.0557,-3.0559,-3.0632,-3.0632,-3.0583,-3.0714,-3.0652,-3.0663,-3.0711,-3.073,-3.0745,-3.0742,-3.0508,0,0,0,0,0,-3.053,-3.057,-3.0563,-3.0637,-3.0645,-3.0626,-3.0646,-3.0624,-3.0635,-3.064,-3.0638,-3.065,-3.0684,-3.0707,-3.0738,-3.0828,-3.0827,-3.0871,-3.0886,-3.0898,-3.0908,-3.0955,-3.0974,-3.0771,-3.0771,-3.077,0,0,-3.0589,-3.0591,-3.0619,-3.0654,-3.0661,-3.0703,-3.0631,-3.0678,-3.0709,-3.0647,-3.071,-3.0709,-3.0721,-3.0799,-3.0834,-3.0802,-3.0964,-3.091,-3.092,-3.0922,-3.0966,-3.0985,-3.1002,-3.0776,-3.0775,-3.0774,0,0,-3.0719,-3.0725,-3.0787,-3.0796,-3.0808,-3.0794,-3.0809,-3.0812,-3.0808,-3.0871,-3.0825,-3.0861,-3.0921,-3.093,-3.0943,-3.1077,-3.104,-3.1088,-3.1166,-3.1212,-3.1228,-3.1242,-3.1289,-3.1306,-3.1098,-3.1098,-3.1098,0,-3.0791,-3.0853,-3.0823,-3.0873,-3.089,-3.0836,-3.0898,-3.0908,-3.093,-3.0942,-3.0907,-3.098,-3.0984,-3.1064,-3.1096,-3.1109,-3.1124,-3.1086,-3.1228,-3.1242,-3.1255,-3.1299,-3.1316,-3.1104,-3.1103,-3.1102,-3.1102,0,-3.094,-3.0984,-3.1032,-3.1054,-3.1077,-3.1133,-3.1111,-3.1137,-3.1113,-3.1103,-3.1167,-3.1171,-3.12,-3.1218,-3.1195,-3.1295,-3.1274,-3.1235,-3.117,-3.128,-3.1321,-3.1338,-3.1112,-3.111,-3.1108,-3.1107,0,0,-3.1124,-3.1129,-3.1147,-3.1156,-3.1165,-3.1198,-3.1252,-3.1281,-3.1303,-3.132,-3.1363,-3.1415,-3.1378,-3.1393,-3.137,-3.1411,-3.1515,-3.1366,-3.1365,-3.1392,-3.1624,-3.1653,-3.1673,-3.1491,-3.1494,-3.1497,-3.1622,0,-3.1251,-3.1342,-3.1317,-3.1408,-3.1447,-3.1397,-3.1444,-3.1454,-3.1447,-3.1479,-3.147,-3.1507,-3.1456,-3.1464,-3.1502,-3.1495,-3.1561,-3.1485,-3.153,-3.1532,-3.1528,-3.1694,-3.1726,-3.1844,-3.1638,-3.1641,-3.1643,0,-3.1411,-3.1433,-3.1529,-3.1531,-3.1546,-3.1589,-3.1613,-3.1645,-3.1655,-3.1647,-3.1663,-3.1633,-3.1685,-3.1622,-3.1692,-3.1641,-3.1659,-3.1658,-3.1662,-3.1664,-3.1593,-3.17,-3.1881,-3.1898,-3.1668,-3.1666,-3.1664,0,-3.1534,-3.1588,-3.1652,-3.1662,-3.1666,-3.1697,-3.17,-3.1707,-3.1726,-3.1748,-3.1759,-3.1787,-3.1802,-3.1824,-3.1801,-3.1757,-3.1875,-3.181,-3.1869,-3.187,-3.1895,-3.1894,-3.208,-3.1908,-3.1908,-3.1908,-3.1907,0,-3.1677,-3.1737,-3.1707,-3.1747,-3.1812,-3.1782,-3.1848,-3.1845,-3.1852,-3.1889,-3.1848,-3.1884,-3.1853,-3.1886,-3.1869,-3.1929,-3.1936,-3.1931,-3.1925,-3.1934,-3.1935,-3.1944,-3.1935,-3.1912,-3.1911,-3.191,-3.191,0,-3.1826,-3.1808,-3.1874,-3.1873,-3.1874,-3.1922,-3.1921,-3.1957,-3.1946,-3.1994,-3.2004,-3.1987,-3.2024,-3.2004,-3.2042,-3.203,-3.2109,-3.2093,-3.2105,-3.2101,-3.216,-3.2154,-3.2358,-3.2383,-3.2196,-3.2198,-3.22,0,-3.1918,-3.1963,-3.1966,-3.1988,-3.1994,-3.2031,-3.205,-3.2022,-3.2043,-3.2059,-3.2093,-3.2126,-3.2151,-3.2212,-3.2203,-3.2232,-3.2215,-3.2285,-3.2219,-3.2226,-3.2215,-3.2213,-3.2216,-3.2298,-3.23,-3.2302,-3.2303,0,-3.2083,-3.2072,-3.2102,-3.2128,-3.2152,-3.2172,-3.2188,-3.2208,-3.218,-3.2207,-3.2244,-3.2263,-3.2302,-3.2335,-3.2359,-3.2362,-3.2328,-3.2324,-3.2339,-3.2348,-3.2353,-3.235,-3.214,-3.2319,-3.2318,-3.2317,-3.2316,-3.2315,-3.2206,-3.2243,-3.2251,-3.2285,-3.2294,-3.231,-3.2343,-3.2337,-3.2367,-3.2396,-3.2378,-3.2421,-3.243,-3.246,-3.2467,-3.25,-3.2472,-3.2494,-3.2499,-3.2505,-3.2513,-3.2349,-3.2504,-3.2504,-3.2503,-3.2503,-3.2503,0,-3.2368,-3.2371,-3.2402,-3.2426,-3.2452,-3.2418,-3.2434,-3.2458,-3.2497,-3.2508,-3.2534,-3.2576,-3.2608,-3.2602,-3.263,-3.2658,-3.2643,-3.2667,-3.2664,-3.2665,-3.2536,-3.252,-3.2678,-3.2678,-3.2678,-3.2678,-3.2678,-3.2678,-3.2456,-3.2517,-3.2507,-3.2571,-3.2573,-3.2615,-3.2627,-3.2641,-3.265,-3.2699,-3.2725,-3.2721,-3.2725,-3.2754,-3.2781,-3.2779,-3.2791,-3.282,-3.2812,-3.2691,-3.2674,-3.2657,-3.2642,-3.2823,-3.2823,-3.2937,-3.2938,-3.2939]},{"header":{"parameterUnit":"m.s-1","parameterCategory":1,"la1":30.2991,"la2":30.254,"lo1":-89.0895,"lo2":-89.0444,"dy":0.0017,"dx":0.0017,"nx":28,"ny":28,"refTime":"2023-08-21T09:00:00:Z","depth":0,"parameterNumber":3,"parameterNumberName":"V-component_of_WINDS"},"data":[0,0,0,0,0,0,0,0,0,0,0,0,0,0,0,0,0,0,0,0,0,0,0,0,0,0,0,0,0,0,0,0,0,0,0,0,0,0,0,0,0,0,0,0,0,0,0,0,0,0,0,0,0,0,0,0,0,0,1.5321,1.5321,0,1.5325,1.5325,1.5325,1.5285,1.5284,1.5282,1.5281,1.5284,1.5285,1.5287,0,0,0,0,0,0,0,0,0,0,0,0,0,1.5278,1.5279,1.5321,1.5321,1.5321,1.5325,1.5325,1.5325,1.5285,1.5283,1.5282,1.5281,1.5284,1.5285,1.5287,0,0,0,0,0,0,0,0,0,0,0,0,0,1.5291,1.528,1.5321,1.5301,1.53,1.5325,1.5325,1.5325,1.5285,1.5283,1.5282,1.528,1.5284,1.5285,1.5287,1.533,0,0,1.5292,1.5293,0,0,0,0,0,0,0,0,1.529,1.5293,1.5304,1.5303,1.5301,1.5303,1.5311,1.5327,1.5286,1.5291,1.5281,1.5279,1.5292,1.5293,1.5297,1.533,1.5331,1.5292,1.5293,1.5294,1.5294,0,0,0,0,0,0,0,1.5289,1.5292,1.5322,1.5304,1.5303,1.5292,1.5292,1.5314,1.53,1.529,1.5287,1.5288,1.529,1.5295,1.5297,1.5331,1.5292,1.5293,1.5295,1.5295,1.54,1.5402,0,0,0,0,0,0,1.5291,1.5292,1.5322,1.5322,1.5291,1.5295,1.5295,1.5304,1.53,1.5298,1.529,1.5286,1.5293,1.5295,1.5297,1.5347,1.5294,1.5295,1.5296,1.5399,1.5401,1.5403,0,0,0,0,0,0,1.5291,1.5294,1.5322,1.5306,1.5309,1.5297,1.5308,1.5305,1.5309,1.53,1.5297,1.5297,1.5292,1.5294,1.5322,1.5347,1.5296,1.5298,1.5397,1.5399,1.5402,1.5449,0,0,0,0,0,0,1.529,1.5294,1.5311,1.5307,1.531,1.5348,1.5309,1.5306,1.5313,1.5308,1.5306,1.5304,1.5291,1.532,1.5324,1.5348,1.5299,1.5394,1.5398,1.5401,1.5445,1.5453,1.546,0,0,0,0,0,1.5288,1.5323,1.5312,1.5316,1.533,1.5349,1.5351,1.5336,1.5315,1.5331,1.5325,1.5304,1.5344,1.5323,1.5327,1.5352,1.5393,1.5397,1.5401,1.5442,1.5451,1.5459,0,0,0,0,0,0,1.5329,1.5323,1.5309,1.5345,1.5348,1.5343,1.5362,1.5346,1.5355,1.5351,1.5331,1.5331,1.5362,1.536,1.5337,1.5395,1.5365,1.537,1.5394,1.5403,1.541,1.541,1.53,0,0,0,0,0,1.5343,1.5359,1.5352,1.5384,1.5386,1.5375,1.5382,1.537,1.5373,1.5374,1.5369,1.5372,1.5386,1.5394,1.5406,1.5445,1.5444,1.5464,1.5472,1.5478,1.5482,1.5503,1.5512,1.5416,1.5416,1.5416,0,0,1.537,1.5369,1.538,1.5392,1.5393,1.5411,1.5376,1.5395,1.5408,1.5376,1.5403,1.54,1.5402,1.5436,1.5451,1.5435,1.5508,1.5483,1.5488,1.5489,1.5508,1.5517,1.5525,1.5419,1.5418,1.5418,0,0,1.5429,1.5429,1.5456,1.5458,1.5461,1.5453,1.546,1.5457,1.5454,1.5481,1.5457,1.5472,1.5495,1.5498,1.5502,1.5564,1.5545,1.5568,1.5605,1.5626,1.5633,1.564,1.5661,1.5669,1.5573,1.5573,1.5573,0,1.5462,1.5488,1.5472,1.5493,1.5499,1.5473,1.55,1.5503,1.5509,1.5513,1.5497,1.5525,1.5525,1.5559,1.5574,1.5579,1.5586,1.5567,1.5634,1.564,1.5646,1.5666,1.5674,1.5575,1.5575,1.5575,1.5575,0,1.5529,1.5547,1.5568,1.5575,1.5584,1.5608,1.5596,1.5607,1.5595,1.5588,1.5616,1.5615,1.5626,1.5633,1.5621,1.5666,1.5656,1.5637,1.5606,1.5658,1.5677,1.5684,1.5579,1.5578,1.5578,1.5577,0,0,1.5612,1.5611,1.5619,1.5623,1.5624,1.5638,1.5661,1.5672,1.5682,1.5688,1.5706,1.5727,1.571,1.5715,1.5703,1.5721,1.577,1.5699,1.5699,1.5712,1.5819,1.5833,1.5842,1.5758,1.5759,1.576,1.5819,0,1.5668,1.5708,1.5695,1.5735,1.5752,1.5728,1.5748,1.5751,1.5747,1.576,1.5755,1.577,1.5745,1.5748,1.5765,1.576,1.5791,1.5756,1.5774,1.5775,1.5774,1.5852,1.5867,1.5922,1.5826,1.5827,1.5828,0,1.574,1.5749,1.5791,1.5791,1.5797,1.5816,1.5825,1.5839,1.5842,1.5837,1.5844,1.5829,1.5851,1.5822,1.5853,1.5829,1.5836,1.5835,1.5837,1.5837,1.5804,1.5854,1.5939,1.5947,1.5839,1.5839,1.5838,0,1.5796,1.5819,1.5847,1.5851,1.5851,1.5865,1.5865,1.5867,1.5875,1.5884,1.5889,1.59,1.5906,1.5915,1.5903,1.5883,1.5936,1.5905,1.5932,1.5933,1.5944,1.5943,1.603,1.595,1.595,1.595,1.5949,0,1.586,1.5886,1.5872,1.5889,1.5919,1.5904,1.5933,1.5931,1.5933,1.595,1.593,1.5946,1.5929,1.5944,1.5935,1.5962,1.5965,1.5961,1.5959,1.5963,1.5963,1.5966,1.5962,1.5952,1.5951,1.5951,1.5951,0,1.5926,1.5918,1.5947,1.5946,1.5946,1.5968,1.5967,1.5982,1.5977,1.5998,1.6002,1.5994,1.601,1.5999,1.6015,1.6009,1.6044,1.6037,1.6043,1.6041,1.6068,1.6066,1.616,1.6172,1.6085,1.6085,1.6086,0,1.5967,1.5988,1.5989,1.5999,1.6001,1.6017,1.6026,1.6012,1.6022,1.6028,1.6043,1.6058,1.6068,1.6095,1.609,1.6102,1.6094,1.6127,1.6096,1.61,1.6094,1.6093,1.6095,1.6132,1.6133,1.6134,1.6135,0,1.6041,1.6037,1.605,1.6062,1.6073,1.6081,1.6088,1.6098,1.6084,1.6096,1.6113,1.6121,1.6138,1.6152,1.6163,1.6163,1.6147,1.6145,1.6152,1.6156,1.6159,1.6157,1.6059,1.6142,1.6142,1.6141,1.6141,1.614,1.6096,1.6113,1.6117,1.6132,1.6136,1.6144,1.6159,1.6156,1.617,1.6183,1.6174,1.6194,1.6197,1.621,1.6213,1.6228,1.6214,1.6224,1.6227,1.6229,1.6233,1.6157,1.6229,1.6229,1.6229,1.6229,1.6229,0,1.6168,1.617,1.6185,1.6196,1.6208,1.6193,1.62,1.6211,1.6229,1.6234,1.6245,1.6265,1.6279,1.6276,1.6289,1.6301,1.6294,1.6305,1.6303,1.6304,1.6244,1.6237,1.6311,1.6311,1.6311,1.6311,1.6311,1.6311,1.6207,1.6235,1.6231,1.6261,1.6262,1.6282,1.6287,1.6294,1.6298,1.6321,1.6333,1.6331,1.6333,1.6346,1.6359,1.6357,1.6363,1.6376,1.6372,1.6316,1.6308,1.63,1.6293,1.6378,1.6378,1.6431,1.6431,1.6431]}]]